Regional Weather Roundup
Issued by NWS Pendleton, OR

Home | Current Version | Previous Version | Text Only | Print | Product List | Glossary On
Versions: 1 2 3 4 5 6 7 8 9 10 11 12 13 14 15 16 17 18 19 20 21 22 23 24 25 26 27 28 29 30 31 32 33 34 35 36 37 38 39 40 41 42 43 44 45 46 47 48 49 50
000
ASUS46 KPDT 010625
RWRPDT
PENDLETON REGIONAL WEATHER ROUNDUP
NATIONAL WEATHER SERVICE PENDLETON OREGON
1100 PM PDT SUN APR 30 2017

NOTE: FAIR INDICATES FEW OR NO CLOUDS BELOW 12,000 FEET WITH NO
SIGNIFICANT WEATHER AND/OR OBSTRUCTIONS TO VISIBILITY.

# INDICATES UNOFFICIAL STATION AND DATA

WAZ520-010710-
EAST SLOPES OF WASHINGTON CASCADES

CITY            SKY/WX      TMP DP  RH  WIND    PRES   REMARKS
#CLE ELUM LAKE  N/A         38  32  79  CALM    30.23S
#MANASTASH CYN  N/A         50  50  100 CALM    30.16S
#NELSON 3SW     N/A         36  34  92  CALM    30.47R
#NILE           N/A         42  34  73  S2      29.49S
#TEANAWAY 4NE   N/A         39  35  85  CALM    N/A
#TROUT LAKE 1NE N/A         41  34  76  NW5     30.28S
#TROUT LAKE 1E  N/A         38  33  82  CALM    30.29S
$$

WAZ521-010710-
SIMCOE HIGHLANDS

CITY            SKY/WX      TMP DP  RH  WIND    PRES   REMARKS
#BICKLETON HS   N/A         41  33  73  W6      29.83F
#CENTERVILLE 1SWN/A         42  32  67  W10     30.23S
#GOLDENDALE 1NE N/A         44  24  45  W3      N/A
#GOLDENDALE 4W  N/A         43   7  22  W7      30.28S
#GOODNOE HILLS  N/A         46  34  63  W20     N/A    WCI 38
#LYLE 6NE       N/A         45  35  68  W6      30.24S
$$

WAZ026-010710-
KITTITAS VALLEY

CITY            SKY/WX      TMP DP  RH  WIND    PRES   REMARKS
ELLENSBURG AP   PTCLDY      44  34  68  NW12    30.21F WCI 38
6HR MIN TEMP:   43; 6HR MAX TEMP:   55;

#ELLENSBURG 3NE N/A         42  35  76  W8      28.27S
#ELLENSBURG 13S N/A         48  34  58  E1      N/A
#KITTITAS 4N    N/A         40  33  76  NW8     30.20S
#KITTITAS 3S    N/A         41  34  76  CALM    30.21S
#THORP 6N       N/A         39  35  85  W21G29  30.21F WCI 29
$$

WAZ027-010710-
YAKIMA VALLEY

CITY            SKY/WX      TMP DP  RH  WIND    PRES   REMARKS
SUNNYSIDE AP    PTCLDY      48  33  56  W9      30.23R
YAKIMA AIRPORT  CLEAR       48  33  56  NW7     30.23R
6HR MIN TEMP:   46; 6HR MAX TEMP:   64;

YAKIMA-VAGABOND CLEAR       45  32  60  N5      30.20S
6HR MIN TEMP:   45; 6HR MAX TEMP:   59;

#DONALD 2NE     N/A         47  16  28  NW5     29.06S
#GRANDVIEW      N/A         50  31  48  W1      30.23R
#MOXEE 2E       N/A         46   0  14  CALM    30.16R
#NACHES 2SW     N/A         44  36  73  W2      30.18S
#TERRACE HTS    N/A         46  34  63  CALM    30.18R
#WEST VALLEY    N/A         47  33  58  CALM    30.20R
#W YAKIMA       N/A         46  34  63  CALM    30.21S
#WILEY CITY 3W  N/A         40  27  59  CALM    30.18S
$$

WAZ028-010710-
LOWER COLUMBIA BASIN...WASHINGTON

CITY            SKY/WX      TMP DP  RH  WIND    PRES   REMARKS
PASCO           PTCLDY      47  34  60  W5      30.23R
6HR MIN TEMP:   47; 6HR MAX TEMP:   66;

PROSSER AWOS    N/A         46  34  63  CALM    30.26R
RICHLAND AWOS   PTCLDY      48  35  60  CALM    30.22R
#BENTON CITY    N/A         50  34  54  W6      30.12R
#CONNELL 5N     N/A         45  34  65  W2      30.17R
#ELTOPIA 6NW    N/A         47  35  63  W2      29.17R
#KAHLOTUS       N/A         47  33  58  NW16    30.17R WCI 41
#KENNEWICK 3S   N/A         47  34  60  SW1     30.22R
#PATERSON       N/A         49  37  63  N3      30.21R
#SAGEMOOR 2W    N/A         47  34  60  W3      30.08R
#WEST PASCO     N/A         50  32  50  CALM    30.24R
$$

WAZ029-010710-
FOOTHILLS OF THE BLUES...WASHINGTON

CITY            SKY/WX      TMP DP  RH  WIND    PRES   REMARKS
WALLA WALLA AP  MOCLDY      50  36  58  S13     30.23R
6HR MIN TEMP:   49; 6HR MAX TEMP:   64;

#CLYDE 6NW      N/A         44  33  65  CALM    30.19R
#LOWDEN 2SE     N/A         47  37  68  W1      30.20R
#PLEASANT VIEW 1N/A         41  32  70  SW3     30.22R
#PRESCOTT       N/A         48  35  60  CALM    30.19R
#WHITMAN COLLEGEN/A         50  36  58  SE7     30.27R
#WAITSBURG 5S   N/A         44  36  73  S7      30.31R
#WAITSBURG 8N   N/A         43  N/A N/A S6      29.97R
#WALLA WALLA 5E N/A         48  37  65  S10     N/A
#WHITMAN MISSIONN/A         47  38  71  CALM    30.23R
$$

WAZ030-010710-
BLUE MOUNTAINS...WASHINGTON

CITY            SKY/WX      TMP DP  RH  WIND    PRES   REMARKS
#DIXIE 5SE      N/A         42  33  70  SW6     30.14R
$$

ORZ009-041-WAZ024-010710-
COLUMBIA RIVER GORGE

CITY            SKY/WX      TMP DP  RH  WIND    PRES   REMARKS
THE DALLES AP   CLEAR       52  35  52  W10     30.28S
6HR MIN TEMP:   51; 6HR MAX TEMP:   61;

#ARLINGTON AIRPON/A         47  36  65  W8      30.25S
#CELILO DOT     N/A         53  30  41  SW7     N/A
#MOSIER 1S      N/A         47  24  40  CALM    30.27S
#MURDOCK        N/A         52  37  56  NW12    30.24S
#SMITHVILLE     N/A         51  37  59  W7      30.23R

$$

ORZ510-010710-
NORTH CENTRAL OREGON

CITY            SKY/WX      TMP DP  RH  WIND    PRES   REMARKS
#ANTELOPE       N/A         36  29  75  CALM    30.12S
#CHENOWITH 1W   N/A         43  33  67  NW32    N/A    WCI 32
#DUFUR          N/A         41  34  76  CALM    30.23R
#DUFUR 9E       N/A         40  33  76  N15     30.31R WCI 32
#GRASS VALLEY 1SN/A         41  33  73  CALM    30.38R
#KENT DOT       N/A         37  26  64  N8      N/A
#MAUPIN SCHOOL  N/A         49  35  58  W6      30.30S
#MORO SCHOOL    N/A         44  38  79  NW3     30.33S
#SHANIKO 5WSW   N/A         40  24  52  N10     N/A
#SHANIKO 4NW    N/A         38  29  70  W10     30.23S
#TYGH VALLEY 2NEN/A         46  34  63  N3      30.24R
#WAPANITIA AIRPON/A         45  34  65  NW7     30.27R
#WASCO DOT      N/A         46  29  51  W7      N/A
#WASCO 5NE      N/A         44  33  65  W7      30.24S
$$

ORZ511-010710-
CENTRAL OREGON

CITY            SKY/WX      TMP DP  RH  WIND    PRES   REMARKS
BEND AIRPORT    CLEAR       39  30  70  CALM    30.25S
MADRAS AIRPORT  PTCLDY      39  32  76  CALM    30.28S
PRINEVILLE AP   CLEAR       39  28  64  CALM    30.25S
REDMOND AIRPORT CLEAR       43  27  53  N9      30.24F
6HR MIN TEMP:   43; 6HR MAX TEMP:   59;

#ASHWOOD SCHOOL N/A         42  32  67  CALM    30.21S
#BEND 1SW       N/A         37  28  70  CALM    N/A
#BEND-AWBREY    N/A         41  32  70  NE3     30.20R
#BEND-KIM LN    N/A         38  31  76  CALM    30.16S
#CULVER         N/A         42  30  62  CALM    30.16S
#CULVER 8W      N/A         44  28  53  CALM    30.22S
#LAKE BILLY CHINN/A         46  N/A N/A E3      30.30R
#MADRAS 4S      N/A         37   2  22  S6      30.32S
#POWELL BUTTE   N/A         42  29  60  NW7     30.18S
#PRINEVILLE     N/A         41  31  67  CALM    30.32R
#PRINEVILLE 3N  N/A         38  31  76  E3      30.22S
#WARM SPRINGS   N/A         47  34  60  CALM    30.22S

$$


ORZ509-010710-
EAST SLOPES OF OREGON CASCADES

CITY            SKY/WX      TMP DP  RH  WIND    PRES   REMARKS
SISTERS AWOS    N/A         45  34  65  W9      30.20S
#CAMP SHERMAN   N/A         41  31  67  CALM    30.30F
#LA PINE 4NW    N/A         41  32  70  W3      30.27S
#LAVA BUTTE DOT N/A         39  25  57  SE3     N/A
#SISTERS 3N     N/A         43  28  55  NW2     30.23S
#SUNRIVER       N/A         42  28  57  S1      30.21S
#WANOGA BUTTE D N/A         38   3  22  NE8     N/A

$$

ORZ044-010710-
LOWER COLUMBIA BASIN...OREGON

CITY            SKY/WX      TMP DP  RH  WIND    PRES   REMARKS
HERMISTON       MOCLDY      47  36  65  SW9     30.23R
6HR MIN TEMP:   47; 6HR MAX TEMP:   63;

#BOARDMAN 8SW   N/A         44  36  73  SW6     30.23R
#ECHO 8SW       N/A         48  34  58  SW2     30.24S
#IONE SCHOOL    N/A         48  32  54  SW9     30.26S
#UMATILLA       N/A         49  34  56  SW9     30.15R
$$

ORZ507-010710-
NORTHERN FOOTHILLS OF THE BLUES

CITY            SKY/WX      TMP DP  RH  WIND    PRES   REMARKS
PENDLETON AIRPT MOCLDY      47  33  58  W21     30.21S WCI 39
6HR MIN TEMP:   47; 6HR MAX TEMP:   58;

#ADAMS 3WNW     N/A         43  35  73  SW6     30.22R
#ATHENA         N/A         46  34  63  SW1     30.25R
#CAYUSE         N/A         47  34  60  SW10    30.23R
#HELIX SCHOOL   N/A         44  34  68  NW6     30.21R
#HELIX 3N       N/A         42  34  73  W9      30.18R
#HOLDMAN 6E     N/A         42  34  73  SW7     30.03R
#M-F FERNDALE   N/A         49  34  56  CALM    30.20R
#M-F GROVE ELEM N/A         48  33  56  S3      30.21R
#M-FREEWATER 5SEN/A         48  34  58  SW7     30.22R
#PENDLETON DNTN N/A         50  27  41  W2      30.22R
#PDT AQUATIC CTRN/A         48  29  47  W7      30.23S
#PENDLETON 7NW  N/A         46  34  63  W12     31.49F WCI 40
#PILOT ROCK 1S  N/A         46  29  51  S7      30.23R
#PILOT ROCK     N/A         45  33  63  SW5     30.24R
#TUTUILLA       N/A         47  33  58  SW6     30.24R
#UMAPINE 2E     N/A         49  37  63  S2      30.20R

$$

ORZ508-010710-
SOUTHERN FOOTHILLS OF THE BLUES

CITY            SKY/WX      TMP DP  RH  WIND    PRES   REMARKS
LEXINGTON       PTCLDY      45  32  60  SW6     30.29R
#AJAX           N/A         43  27  53  S9      30.37S
#CONDON 5W      N/A         36  28  72  NW8     30.20S
#FOSSIL SCHOOL  N/A         39  31  73  CALM    30.18F
#HEPPNER EOC    N/A         43  32  65  W2      30.19R
#HEPPNER 4NE    N/A         40  32  73  W7      30.24R
#LEXINGTON 2SE  N/A         44  33  65  W2      30.24S
#MIKKALO        N/A         44  31  60  W6      30.35R
#OLEX 4N        N/A         47  34  60  W15     30.23S WCI 41
#RUGGS 2SW      N/A         39  30  70  SW6     30.26S

$$

ORZ502-503-010710-
BLUE MOUNTAINS

CITY            SKY/WX      TMP DP  RH  WIND    PRES   REMARKS
MEACHAM         PTCLDY      38  25  59  MISG    30.21S
6HR MIN TEMP:   38; 6HR MAX TEMP:   50;

#GREENHORN 9SW  N/A         39  30  70  CALM    26.38S
#HARDMAN 10S    N/A         35  28  75  CALM    30.33S
#LADD CYN SMT   N/A         40  26  57  NW9     N/A
#LONG CREEK HS  N/A         39  36  89  CALM    N/A
#N POWDER DOT   N/A         43  28  55  N15     N/A    WCI 36
#PIKES PEAK     N/A         39  30  70  N15     27.99S WCI 31
#TOLLGATE       N/A         31  28  88  W6      30.01S
#UKIAH          N/A         35  29  78  CALM    30.13S
#WESTON 4E      N/A         40  32  73  S7      30.19R
$$

ORZ505-010710-
JOHN DAY BASIN

CITY            SKY/WX      TMP DP  RH  WIND    PRES   REMARKS
JOHN DAY        CLEAR       41  30  65  CALM    30.24R
#DAYVILLE SCHOOLN/A         45  30  55  CALM    30.19R
#MITCHELL 8NW   N/A         40  28  62  CALM    30.23R
#MONUMENT HS    N/A         46  29  51  CALM    30.20R
#MT. VERNON 5SE N/A         39  30  70  CALM    30.17R
$$

ORZ506-010710-
OCHOCO AND JOHN DAY HIGHLANDS

CITY            SKY/WX      TMP DP  RH  WIND    PRES   REMARKS
#HORSE RIDGE DO N/A         40  27  59  N7      N/A
#PAULINA ODOT   N/A         43  28  55  NW2     N/A
#PINE MTN OBS   N/A         32  25  75  N5      N/A
#SENECA 9NW     N/A         34  27  75  CALM    30.16R
$$

ORZ049-010710-
GRANDE RONDE VALLEY

CITY            SKY/WX      TMP DP  RH  WIND    PRES   REMARKS
LA GRANDE       PTCLDY      43  28  55  N6      30.21R
#COVE           N/A         38  33  82  CALM    30.23R
#COVE SCHOOL    N/A         37  32  82  CALM    30.22R
#ELGIN 3N       N/A         43  30  60  CALM    30.18R
#ELGIN 1E       N/A         44  31  60  CALM    N/A
#IMBLER SCHOOL  N/A         43  31  62  W3      30.17R
#ISLAND CITY 4N N/A         44  39  82  CALM    30.37F
#UNION 1S       N/A         43  31  62  N5      30.20R
$$

ORZ050-010710-
WALLOWA COUNTY

CITY            SKY/WX      TMP DP  RH  WIND    PRES   REMARKS
JOSEPH AIRPORT  CLOUDY      37  27  67  CALM    30.20R
#IMNAHA SCHOOL  N/A         47  33  58  W1      30.18R
#JOSEPH 3N      N/A         39  25  57  NW3     30.19R
#JOSEPH 3W      N/A         33  26  75  CALM    30.01R
#LOSTINE 3SE    N/A         39  29  67  CALM    30.24R
#PROMISE 1S     N/A         39  31  73  SW2     30.29R



$$



USA.gov is the U.S. government's official web portal to all federal, state and local government web resources and services.